Content
SEND FEEDBACK

Daily
Averages
Monthly
Summary
United States of America

VINTON, LOUISIANA


Home > North America > United States > Louisiana
Elevation: 20 feet     Latitude: 30 12N     Longitude: 093 35W

WEATHER
 
SELECT A DAY
Number of Records: 187,913;   Date Range: 11/22/06 - 8/30/14
 
SHARE

PRINT THIS DATA

[ ← Previous Day ]
WEATHER ALMANAC - APRIL 7, 2014
[ Next Day → ]
[ °C ]   °F
Weather ElementAverageHighLow
Temperature61.7 °F73.6 °F (4:35 pm)54.5 °F (7:35 am)
Dewpoint53.5 °F56.7 °F (12:55 am)51.8 °F (8:15 am)
Humidity76.8 %98 % (12:55 am)48 % (5:15 pm)
Barometer29.84 in29.99 in (11:35 pm)29.70 in (12:35 am)
Wind Speed8.9 mph16.1 mph (2:15 am)
Wind Gust21.9 mph (2:55 am)
Weather ElementAverage
Visibility10 mi
Wind DirectionNNW (321 °)

Weather ElementTotal
Precipitation---
Heating Degree Days1 (Base 65)
Growing Degree Days14.1 (Base 50)
Averaged from 69 records on April 7, 2014
WEATHER CONDITIONS BREAKOUT
WIND DIRECTION BREAKOUT
WEATHER BY HOUR - APRIL 7, 2014
[ °C ]   °F
Local TimeTemperatureDewpointHumidityBarometerVisibilityWind DirectionWind SpeedGust SpeedPrecipitationEventsConditions
12:35 AM57.2 °F56.5 °F97 %29.70 in7.0 miNW (310°)13.8 mphOvercast
12:55 AM57.2 °F56.7 °F98 %29.72 in10.0 miWNW (300°)10.4 mphOvercast
1:15 AM57.2 °F56.7 °F98 %29.73 in10.0 miWNW (300°)4.6 mphOvercast
1:35 AM57.0 °F56.5 °F98 %29.74 in10.0 miWNW (290°)13.8 mph18.4 mphOvercast
1:55 AM56.7 °F56.1 °F98 %29.72 in10.0 miNW (310°)11.5 mphOvercast
2:15 AM56.3 °F55.4 °F97 %29.73 in10.0 miNW (310°)16.1 mphOvercast
2:35 AM55.9 °F54.9 °F96 %29.71 in10.0 miWNW (300°)10.4 mphOvercast
2:55 AM55.4 °F54.0 °F95 %29.73 in10.0 miWNW (290°)13.8 mph21.9 mphOvercast
3:15 AM55.2 °F54.1 °F96 %29.74 in10.0 miNW (310°)11.5 mphOvercast
3:35 AM54.9 °F53.8 °F96 %29.75 in10.0 miNW (310°)9.2 mphOvercast
3:55 AM54.9 °F54.0 °F97 %29.76 in10.0 miNW (320°)8.1 mphOvercast
4:15 AM54.9 °F54.0 °F97 %29.75 in10.0 miNW (310°)10.4 mphOvercast
4:35 AM55.0 °F53.8 °F96 %29.76 in10.0 miNW (320°)8.1 mphOvercast
4:55 AM55.0 °F53.6 °F95 %29.76 in10.0 miNW (320°)8.1 mphOvercast
5:15 AM55.4 °F53.8 °F94 %29.77 in10.0 miNW (320°)8.1 mphOvercast
5:35 AM55.4 °F53.6 °F94 %29.77 in10.0 miNW (320°)8.1 mphOvercast
5:55 AM55.4 °F53.6 °F94 %29.78 in10.0 miNW (310°)9.2 mphOvercast
6:15 AM55.4 °F53.6 °F94 %29.79 in10.0 miNW (310°)11.5 mphOvercast
6:35 AM55.4 °F52.9 °F91 %29.80 in10.0 miNNW (330°)11.5 mph20.7 mphOvercast
7:15 AM54.7 °F52.5 °F92 %29.83 in10.0 miNNW (330°)9.2 mph17.3 mphOvercast
7:35 AM54.5 °F52.0 °F91 %29.84 in10.0 miNNW (330°)12.7 mph17.3 mphOvercast
7:55 AM54.7 °F52.0 °F91 %29.85 in10.0 miNNW (330°)12.7 mphOvercast
8:15 AM54.9 °F51.8 °F89 %29.86 in10.0 miNNW (340°)11.5 mphOvercast
8:35 AM55.2 °F52.0 °F89 %29.86 in10.0 miNNW (330°)11.5 mphOvercast
8:55 AM55.2 °F51.8 °F88 %29.87 in10.0 miNNW (330°)8.1 mphOvercast
9:15 AM55.4 °F52.2 °F89 %29.87 in10.0 miNNW (330°)8.1 mphOvercast
9:35 AM55.8 °F52.3 °F88 %29.88 in10.0 miNorth (360°)6.9 mphOvercast
9:55 AM56.1 °F52.0 °F86 %29.88 in10.0 miNorth (360°)8.1 mphOvercast
10:15 AM57.9 °F52.5 °F82 %29.87 in10.0 miNorth (350°)10.4 mphOvercast
10:55 AM60.1 °F52.0 °F75 %29.87 in10.0 miNorth (350°)8.1 mphClear
11:15 AM61.5 °F52.3 °F72 %29.86 in10.0 miNorth (350°)6.9 mphClear
11:35 AM62.2 °F52.3 °F70 %29.87 in10.0 miNNW (340°)10.4 mphClear
11:55 AM63.7 °F53.1 °F68 %29.86 in10.0 miWNW (300°)6.9 mphScattered Clouds
12:15 PM64.6 °F53.1 °F66 %29.86 in10.0 miNW (310°)10.4 mphScattered Clouds
12:35 PM66.7 °F53.8 °F63 %29.86 in10.0 miNW (310°)10.4 mphClear
12:55 PM66.6 °F53.8 °F63 %29.85 in10.0 miWNW (300°)6.9 mphClear
1:15 PM69.3 °F53.8 °F58 %29.85 in10.0 miWNW (300°)11.5 mph18.4 mphClear
1:35 PM69.6 °F54.3 °F58 %29.85 in10.0 miWNW (300°)11.5 mphClear
1:55 PM70.5 °F54.5 °F57 %29.84 in10.0 miNNW (340°)10.4 mph17.3 mphClear
2:15 PM71.4 °F53.6 °F53 %29.83 in10.0 miNorth (360°)11.5 mphClear
2:35 PM71.6 °F53.6 °F53 %29.83 in10.0 miWNW (300°)12.7 mph16.1 mphClear
2:55 PM72.5 °F54.3 °F53 %29.83 in10.0 miWNW (300°)4.6 mph9.2 mphClear
3:15 PM73.4 °F55.2 °F53 %29.82 in10.0 miNNW (330°)8.1 mphClear
3:35 PM73.4 °F54.3 °F51 %29.81 in10.0 miNorth (350°)10.4 mphClear
3:55 PM73.0 °F53.4 °F50 %29.81 in10.0 miNNW (340°)10.4 mph16.1 mphClear
4:15 PM73.4 °F53.8 °F50 %29.81 in10.0 miNW (310°)10.4 mphClear
4:35 PM73.6 °F53.6 °F50 %29.81 in10.0 miWNW (300°)8.1 mphClear
4:55 PM73.4 °F53.6 °F50 %29.81 in10.0 miNW (320°)10.4 mphClear
5:15 PM72.9 °F52.0 °F48 %29.82 in10.0 miNNW (330°)9.2 mphClear
5:35 PM72.9 °F52.7 °F49 %29.83 in10.0 miNW (310°)9.2 mphClear
5:55 PM72.0 °F52.5 °F50 %29.83 in10.0 miNW (320°)8.1 mphClear
6:15 PM71.1 °F52.0 °F51 %29.84 in10.0 miNNW (330°)10.4 mphClear
6:35 PM70.2 °F52.2 °F53 %29.85 in10.0 miNW (310°)8.1 mphClear
6:55 PM68.9 °F52.3 °F55 %29.86 in10.0 miWNW (300°)10.4 mphClear
7:15 PM67.3 °F53.1 °F60 %29.87 in10.0 miNW (310°)8.1 mphClear
7:35 PM65.3 °F53.1 °F65 %29.87 in10.0 miWNW (300°)5.8 mphClear
7:55 PM61.9 °F53.2 °F73 %29.88 in10.0 miNW (310°)3.5 mphClear
8:15 PM61.5 °F53.6 °F75 %29.89 in10.0 miNW (310°)3.5 mphClear
8:35 PM60.4 °F53.6 °F78 %29.91 in10.0 miNNW (330°)4.6 mphClear
8:55 PM59.9 °F53.6 °F80 %29.91 in10.0 miNNW (340°)3.5 mphClear
9:15 PM59.7 °F54.0 °F81 %29.93 in10.0 miNW (320°)4.6 mphClear
9:35 PM59.0 °F54.0 °F83 %29.93 in10.0 miNNW (330°)3.5 mphClear
9:55 PM59.2 °F54.7 °F85 %29.95 in10.0 miNW (320°)5.8 mphMostly Cloudy
10:15 PM58.8 °F53.6 °F83 %29.96 in10.0 miNNW (330°)4.6 mphScattered Clouds
10:35 PM58.3 °F52.7 °F82 %29.96 in10.0 miNNW (340°)4.6 mphClear
10:55 PM57.6 °F52.5 °F83 %29.96 in10.0 miNNW (330°)5.8 mphScattered Clouds
11:15 PM59.0 °F54.3 °F84 %29.98 in10.0 miNW (320°)6.9 mphMostly Cloudy
11:35 PM59.4 °F53.8 °F82 %29.99 in10.0 miNNW (330°)8.1 mphOvercast
11:55 PM58.8 °F53.6 °F83 %29.98 in10.0 miNNW (340°)8.1 mphMostly Cloudy
Hourly data recorded from KUXL, located miles away from Vinton, Louisiana







STORIES FROM OUR PARTNERS